This is the latest recevied weather packets stored in our database for station/object WA1TYB-13. If no packets are shown the sender has not sent any weather packets the latest 10 day(s).
| Time | Temp. | Humidity | Pressure | Rain* | Wind** | Luminosity | Snow |
|---|---|---|---|---|---|---|---|
| 1777672617 | 20.56° C | 22% | 1019.1 hPa | 0 mm | - | 525 W/m² | - |
| 1777672312 | 20.56° C | 21% | 1019.3 hPa | 0 mm | - | 542 W/m² | - |
| 1777672007 | 20.56° C | 21% | 1019.5 hPa | 0 mm | - | 574 W/m² | - |
| 1777671703 | 20.56° C | 24% | 1019.7 hPa | 0 mm | - | 561 W/m² | - |
| 1777671400 | 20° C | 23% | 1019.6 hPa | 0 mm | - | 555 W/m² | - |
| 1777671096 | 20.56° C | 23% | 1019.6 hPa | 0 mm | - | 560 W/m² | - |
| 1777670793 | 20° C | 21% | 1019.5 hPa | 0 mm | - | 579 W/m² | - |
| 1777670489 | 20.56° C | 22% | 1019.8 hPa | 0 mm | - | 573 W/m² | - |
| 1777670186 | 20° C | 25% | 1019.8 hPa | 0 mm | - | 595 W/m² | - |
| 1777669884 | 19.44° C | 27% | 1019.9 hPa | 0 mm | - | 636 W/m² | - |
| 1777669580 | 19.44° C | 25% | 1020 hPa | 0 mm | - | 652 W/m² | - |
| 1777669277 | 19.44° C | 24% | 1019.8 hPa | 0 mm | - | 659 W/m² | - |
| 1777668973 | 19.44° C | 24% | 1019.8 hPa | 0 mm | - | 636 W/m² | - |
| 1777668671 | 20° C | 29% | 1020.2 hPa | 0 mm | - | 620 W/m² | - |
| 1777668368 | 20° C | 25% | 1019.9 hPa | 0 mm | - | 630 W/m² | - |
| 1777668063 | 18.89° C | 25% | 1020.2 hPa | 0 mm | - | 647 W/m² | - |
| 1777667760 | 19.44° C | 27% | 1020.2 hPa | 0 mm | - | 689 W/m² | - |
| 1777667458 | 19.44° C | 32% | 1020.4 hPa | 0 mm | - | 656 W/m² | - |
| 1777667155 | 18.89° C | 25% | 1020.3 hPa | 0 mm | - | 667 W/m² | - |
| 1777666851 | 18.89° C | 28% | 1020.3 hPa | 0 mm | - | 688 W/m² | - |
| 1777666548 | 19.44° C | 27% | 1020.4 hPa | 0 mm | - | 705 W/m² | - |
| 1777666245 | 18.89° C | 30% | 1020.4 hPa | 0 mm | - | 672 W/m² | - |
| 1777665942 | 19.44° C | 24% | 1020.5 hPa | 0 mm | - | 658 W/m² | - |
| 1777665639 | 18.89° C | 24% | 1020.6 hPa | 0 mm | - | 638 W/m² | - |
| 1777665337 | 18.33° C | 28% | 1020.5 hPa | 0 mm | - | 607 W/m² | - |
* Rain latest hour (hover to see other rain measurements)
** Current wind speed in m/s (hover to see current wind gust speed)